User: anonymous   Login
Location: Newark
(39.1833°N, 3.3000°W)
Time: 23:00:03
(UTC+00:00)
Language:

Tiangong 2 - Orbit

View from above orbital plane
View from above orbital plane
View from above satellite
View from above satellite

Ground track
Ground track

The orbit data is extracted from the following two-line orbital elements,

1 41765U 16057A   19111.91044880  .00003960  00000-0  49724-4 0  9997
2 41765  42.7844 302.5560 0008509 243.0957 255.9431 15.61296281148246
Epoch (UTC): 21 April 2019 21:51:02
Eccentricity: 0.0008509
inclination: 42.7844°
perigee height: 378 km
apogee height: 389 km
right ascension of ascending node: 302.5560°
argument of perigee: 243.0957°
revolutions per day: 15.61296281
mean anomaly at epoch: 255.9431°
orbit number at epoch: 14824

The dashed part of the orbit path shows where the satellite is in the earth's shadow,  

DLR